,,PA_Meas_PMT16A,,PR_Meas_QMR101_102,,RH_Meas_QMH101,,SR_Meas_QMS101,,TA_Meas_QMH101,,GenWind,,GenWind,
time,status,PA,status,PR,status,RH,status,SR,status,TA,status,DirAvg,status,SpdAvg,
2015-03-05, 07:23:04,VALID,919.033,VALID,0,VALID,94.0882,VALID,74.9939,VALID,18.6499,VALID,169,VALID,0,
2015-03-05, 07:24:04,VALID,919.023,VALID,0,VALID,94.3321,VALID,76.8204,VALID,18.6694,VALID,171,VALID,0,
2015-03-05, 07:25:04,VALID,919.091,VALID,0,VALID,94.4465,VALID,78.1097,VALID,18.6889,VALID,171,VALID,0,
2015-03-05, 07:26:04,VALID,919.052,VALID,0,VALID,94.4465,VALID,80.0437,VALID,18.7279,VALID,170,VALID,0,
2015-03-05, 07:27:04,VALID,919.088,VALID,0,VALID,94.4084,VALID,82.8371,VALID,18.7669,VALID,170,VALID,0,
2015-03-05, 07:28:04,VALID,919.102,VALID,0,VALID,94.2712,VALID,84.986,VALID,18.8059,VALID,170,VALID,0,
2015-03-05, 07:29:04,VALID,919.109,VALID,0,VALID,94.1339,VALID,86.8125,VALID,18.8449,VALID,169,VALID,0,
2015-03-05, 07:30:04,VALID,919.15,VALID,0,VALID,93.8747,VALID,87.8869,VALID,18.8839,VALID,169,VALID,0,
2015-03-05, 07:31:04,VALID,919.144,VALID,0,VALID,93.6155,VALID,88.4241,VALID,18.9633,VALID,169,VALID,0,
2015-03-05, 07:32:04,VALID,919.17,VALID,0,VALID,93.425,VALID,88.1017,VALID,19.0008,VALID,149,VALID,0,
2015-03-05, 07:33:04,VALID,919.186,VALID,0,VALID,92.6321,VALID,88.3166,VALID,19.0203,VALID,149,VALID,0,
2015-03-05, 07:34:04,VALID,919.147,VALID,0,VALID,92.3882,VALID,89.4985,VALID,19.0398,VALID,149,VALID,0,
2015-03-05, 07:35:04,VALID,919.164,VALID,0,VALID,92.0985,VALID,89.8208,VALID,19.0593,VALID,149,VALID,0,
2015-03-05, 07:36:04,VALID,919.176,VALID,0,VALID,92.1366,VALID,90.7878,VALID,19.1178,VALID,149,VALID,0,
2015-03-05, 07:37:04,VALID,919.176,VALID,0,VALID,91.8927,VALID,94.2259,VALID,19.1373,VALID,149,VALID,0,
2015-03-05, 07:38:04,VALID,919.196,VALID,0,VALID,91.6182,VALID,100.78,VALID,19.1373,VALID,130,VALID,0,
2015-03-05, 07:39:04,VALID,919.22,VALID,0,VALID,91.2066,VALID,108.301,VALID,19.1749,VALID,130,VALID,0,
2015-03-05, 07:40:04,VALID,919.212,VALID,0,VALID,90.5357,VALID,115.177,VALID,19.2139,VALID,130,VALID,0,
2015-03-05, 07:41:04,VALID,919.223,VALID,0,VALID,90.9397,VALID,121.194,VALID,19.3128,VALID,130,VALID,0,
2015-03-05, 07:42:04,VALID,919.214,VALID,0,VALID,90.7187,VALID,124.632,VALID,19.3713,VALID,130,VALID,0,
2015-03-05, 07:43:04,VALID,919.248,VALID,0,VALID,90.4213,VALID,127.21,VALID,19.4103,VALID,130,VALID,0,
2015-03-05, 07:44:04,VALID,919.238,VALID,0,VALID,90.2917,VALID,130.648,VALID,19.4478,VALID,130,VALID,0,
2015-03-05, 07:45:04,VALID,919.234,VALID,0,VALID,91.0998,VALID,136.665,VALID,19.5453,VALID,130,VALID,0,
2015-03-05, 07:46:04,VALID,919.223,VALID,0,VALID,91.3666,VALID,143.434,VALID,19.6053,VALID,130,VALID,0,
2015-03-05, 07:47:04,VALID,919.244,VALID,0,VALID,91.1303,VALID,144.938,VALID,19.6248,VALID,133,VALID,0,
2015-03-05, 07:48:04,VALID,919.252,VALID,0,VALID,91.3133,VALID,145.798,VALID,19.6038,VALID,128,VALID,0,
2015-03-05, 07:49:04,VALID,919.272,VALID,0,VALID,91.3514,VALID,150.955,VALID,19.6638,VALID,124,VALID,0,
2015-03-05, 07:50:04,VALID,919.32,VALID,0,VALID,91.4124,VALID,154.285,VALID,19.6638,VALID,104,VALID,0.0605469,
2015-03-05, 07:51:04,VALID,919.309,VALID,0,VALID,90.2003,VALID,154.715,VALID,19.5633,VALID,98,VALID,0.236328,
2015-03-05, 07:52:04,VALID,919.351,VALID,0,VALID,90.7263,VALID,155.79,VALID,19.6053,VALID,106,VALID,0,
2015-03-05, 07:53:04,VALID,919.337,VALID,0,VALID,91.2904,VALID,152.459,VALID,19.6248,VALID,92,VALID,0,
2015-03-05, 07:54:04,VALID,919.341,VALID,0,VALID,90.2841,VALID,153.641,VALID,19.6638,VALID,119,VALID,0,
2015-03-05, 07:55:04,VALID,919.349,VALID,0,VALID,89.6437,VALID,155.682,VALID,19.6638,VALID,130,VALID,0,
2015-03-05, 07:56:04,VALID,919.368,VALID,0,VALID,89.1101,VALID,154.071,VALID,19.6638,VALID,133,VALID,0,
2015-03-05, 07:57:04,VALID,919.378,VALID,0,VALID,89.1787,VALID,152.781,VALID,19.6833,VALID,134,VALID,0,
2015-03-05, 07:58:04,VALID,919.361,VALID,0,VALID,89.0415,VALID,153.319,VALID,19.7208,VALID,136,VALID,0,
2015-03-05, 07:59:04,VALID,919.409,VALID,0,VALID,87.4482,VALID,154.178,VALID,19.7028,VALID,131,VALID,0,
2015-03-05, 08:00:04,VALID,919.417,VALID,0,VALID,88.3173,VALID,157.079,VALID,19.7598,VALID,131,VALID,0,
2015-03-05, 08:01:04,VALID,919.412,VALID,0,VALID,88.7137,VALID,157.294,VALID,19.8573,VALID,131,VALID,0,
2015-03-05, 08:02:04,VALID,919.444,VALID,0,VALID,88.1038,VALID,162.558,VALID,19.9353,VALID,135,VALID,0,
2015-03-05, 08:03:04,VALID,919.44,VALID,0,VALID,88.0276,VALID,160.195,VALID,20.0148,VALID,136,VALID,0,
2015-03-05, 08:04:04,VALID,919.452,VALID,0,VALID,87.4711,VALID,165.137,VALID,20.0913,VALID,133,VALID,0,
2015-03-05, 08:05:04,VALID,919.47,VALID,0,VALID,87.1356,VALID,165.352,VALID,20.2278,VALID,138,VALID,0,
2015-03-05, 08:06:04,VALID,919.46,VALID,0,VALID,85.5957,VALID,164.17,VALID,20.3058,VALID,142,VALID,0,
2015-03-05, 08:07:04,VALID,919.449,VALID,0,VALID,84.6504,VALID,165.352,VALID,20.3838,VALID,142,VALID,0,
2015-03-05, 08:08:04,VALID,919.481,VALID,0,VALID,84.1778,VALID,168.575,VALID,20.4423,VALID,142,VALID,0,
2015-03-05, 08:09:04,VALID,919.484,VALID,0,VALID,83.9796,VALID,168.683,VALID,20.5399,VALID,142,VALID,0,
2015-03-05, 08:10:04,VALID,919.507,VALID,0,VALID,83.8576,VALID,170.617,VALID,20.5789,VALID,145,VALID,0,
2015-03-05, 08:11:04,VALID,919.517,VALID,0,VALID,83.7661,VALID,172.336,VALID,20.6374,VALID,155,VALID,0,
2015-03-05, 08:12:04,VALID,919.548,VALID,0,VALID,83.3011,VALID,181.898,VALID,20.6764,VALID,152,VALID,0,
2015-03-05, 08:13:04,VALID,919.557,VALID,0,VALID,82.8055,VALID,191.245,VALID,20.7154,VALID,152,VALID,0,
2015-03-05, 08:14:04,VALID,919.59,VALID,0,VALID,83.0266,VALID,197.047,VALID,20.7739,VALID,153,VALID,0,
2015-03-05, 08:15:04,VALID,919.573,VALID,0,VALID,83.6594,VALID,201.667,VALID,20.8519,VALID,152,VALID,0,
2015-03-05, 08:16:04,VALID,919.602,VALID,0,VALID,83.0952,VALID,208.436,VALID,20.8699,VALID,152,VALID,0,
2015-03-05, 08:17:04,VALID,919.599,VALID,0,VALID,81.4333,VALID,213.915,VALID,20.9105,VALID,134,VALID,0,
2015-03-05, 08:18:04,VALID,919.605,VALID,0,VALID,81.6163,VALID,210.692,VALID,20.9479,VALID,137,VALID,0,
2015-03-05, 08:19:04,VALID,919.599,VALID,0,VALID,82.0508,VALID,212.626,VALID,20.9869,VALID,145,VALID,0,
2015-03-05, 08:20:04,VALID,919.613,VALID,0,VALID,80.8235,VALID,212.948,VALID,20.9869,VALID,145,VALID,0,
2015-03-05, 08:21:04,VALID,919.63,VALID,0,VALID,80.427,VALID,211.659,VALID,20.9869,VALID,145,VALID,0,
2015-03-05, 08:22:04,VALID,919.639,VALID,0,VALID,81.3571,VALID,217.461,VALID,21.0259,VALID,146,VALID,0,
2015-03-05, 08:23:04,VALID,919.673,VALID,0,VALID,79.8248,VALID,222.511,VALID,21.0665,VALID,153,VALID,0,
2015-03-05, 08:24:04,VALID,919.703,VALID,0,VALID,79.3369,VALID,226.164,VALID,21.164,VALID,153,VALID,0,
2015-03-05, 08:25:04,VALID,919.707,VALID,0,VALID,79.1158,VALID,228.205,VALID,21.2811,VALID,150,VALID,0,
2015-03-05, 08:26:04,VALID,919.732,VALID,0,VALID,79.4207,VALID,234.222,VALID,21.3396,VALID,162,VALID,0,
2015-03-05, 08:27:04,VALID,919.732,VALID,0,VALID,79.4055,VALID,242.817,VALID,21.3803,VALID,171,VALID,0,
2015-03-05, 08:28:04,VALID,919.774,VALID,0,VALID,79.8248,VALID,248.619,VALID,21.4177,VALID,170,VALID,0,
2015-03-05, 08:29:04,VALID,919.777,VALID,0,VALID,80.2441,VALID,256.032,VALID,21.4177,VALID,160,VALID,0,
2015-03-05, 08:30:04,VALID,919.823,VALID,0,VALID,79.8248,VALID,264.628,VALID,21.4372,VALID,153,VALID,0,
2015-03-05, 08:31:04,VALID,919.813,VALID,0,VALID,78.849,VALID,276.983,VALID,21.4762,VALID,141,VALID,0,
2015-03-05, 08:32:04,VALID,919.855,VALID,0,VALID,78.2086,VALID,283,VALID,21.4372,VALID,140,VALID,0,
2015-03-05, 08:33:04,VALID,919.851,VALID,0,VALID,78.8109,VALID,275.694,VALID,21.4177,VALID,147,VALID,0,
2015-03-05, 08:34:04,VALID,919.854,VALID,0,VALID,78.2086,VALID,254.313,VALID,21.416,VALID,144,VALID,0,
2015-03-05, 08:35:04,VALID,919.849,VALID,0,VALID,79.0015,VALID,231.643,VALID,21.4957,VALID,144,VALID,0,
2015-03-05, 08:36:04,VALID,919.846,VALID,0,VALID,80.0382,VALID,201.022,VALID,21.5331,VALID,138,VALID,0,
2015-03-05, 08:37:04,VALID,919.867,VALID,0,VALID,79.0777,VALID,188.774,VALID,21.5526,VALID,139,VALID,0,
2015-03-05, 08:38:04,VALID,919.861,VALID,0,VALID,79.2683,VALID,190.278,VALID,21.6111,VALID,146,VALID,0,
2015-03-05, 08:39:04,VALID,919.869,VALID,0,VALID,78.7041,VALID,178.137,VALID,21.6501,VALID,166,VALID,0,
2015-03-05, 08:40:04,VALID,919.868,VALID,0,VALID,79.1311,VALID,166.211,VALID,21.6501,VALID,166,VALID,0,
2015-03-05, 08:41:04,VALID,919.92,VALID,0,VALID,79.1844,VALID,160.625,VALID,21.5916,VALID,164,VALID,0,
2015-03-05, 08:42:04,VALID,919.907,VALID,0,VALID,79.6266,VALID,159.443,VALID,21.6111,VALID,158,VALID,0,
2015-03-05, 08:43:04,VALID,919.925,VALID,0,VALID,80.5414,VALID,165.889,VALID,21.6306,VALID,158,VALID,0,
2015-03-05, 08:44:04,VALID,919.901,VALID,0,VALID,80.7777,VALID,172.336,VALID,21.7103,VALID,158,VALID,0,
2015-03-05, 08:45:04,VALID,919.921,VALID,0,VALID,81.4943,VALID,185.766,VALID,21.6696,VALID,158,VALID,0,
2015-03-05, 08:46:04,VALID,919.926,VALID,0,VALID,81.1665,VALID,192.964,VALID,21.6713,VALID,145,VALID,0,
2015-03-05, 08:47:04,VALID,919.929,VALID,0,VALID,79.7562,VALID,195.543,VALID,21.6891,VALID,72,VALID,0,
2015-03-05, 08:48:04,VALID,919.95,VALID,0,VALID,80.7167,VALID,185.551,VALID,21.6696,VALID,78,VALID,0,
2015-03-05, 08:49:04,VALID,919.967,VALID,0,VALID,80.8616,VALID,187.7,VALID,21.7282,VALID,67,VALID,0,
2015-03-05, 08:50:04,VALID,919.968,VALID,0,VALID,81.784,VALID,190.278,VALID,21.7477,VALID,67,VALID,0,
2015-03-05, 08:51:04,VALID,919.966,VALID,0,VALID,80.1602,VALID,190.386,VALID,21.8257,VALID,67,VALID,0,
2015-03-05, 08:52:04,VALID,919.939,VALID,0,VALID,78.2772,VALID,188.022,VALID,21.8452,VALID,67,VALID,0,
2015-03-05, 08:53:04,VALID,919.956,VALID,0,VALID,80.0916,VALID,187.485,VALID,21.7867,VALID,67,VALID,0,
2015-03-05, 08:54:04,VALID,919.927,VALID,0,VALID,80.3203,VALID,204.138,VALID,21.707,VALID,67,VALID,0,
2015-03-05, 08:55:04,VALID,919.913,VALID,0,VALID,81.1589,VALID,230.784,VALID,21.7087,VALID,67,VALID,0,
2015-03-05, 08:56:04,VALID,919.911,VALID,0,VALID,81.7306,VALID,279.454,VALID,21.707,VALID,67,VALID,0,
2015-03-05, 08:57:04,VALID,919.895,VALID,0,VALID,79.5503,VALID,376.581,VALID,21.7672,VALID,67,VALID,0,
2015-03-05, 08:58:04,VALID,919.899,VALID,0,VALID,79.7028,VALID,407.202,VALID,21.8062,VALID,67,VALID,0,
2015-03-05, 08:59:04,VALID,919.903,VALID,0,VALID,79.1768,VALID,402.26,VALID,21.8842,VALID,67,VALID,0,
2015-03-05, 09:00:04,VALID,919.944,VALID,0,VALID,79.2225,VALID,414.401,VALID,22.0794,VALID,67,VALID,0,
2015-03-05, 09:01:04,VALID,919.924,VALID,0,VALID,77.9875,VALID,403.979,VALID,22.3525,VALID,67,VALID,0,
2015-03-05, 09:02:04,VALID,919.939,VALID,0,VALID,75.9445,VALID,408.276,VALID,22.5867,VALID,67,VALID,0,
2015-03-05, 09:03:04,VALID,919.934,VALID,0,VALID,75.2965,VALID,438.145,VALID,22.8404,VALID,67,VALID,0,
2015-03-05, 09:04:04,VALID,919.936,VALID,0,VALID,75.6167,VALID,450.393,VALID,23.0924,VALID,67,VALID,0,
2015-03-05, 09:05:04,VALID,919.96,VALID,0,VALID,74.3207,VALID,467.047,VALID,23.2875,VALID,67,VALID,0,
2015-03-05, 09:06:04,VALID,919.981,VALID,0,VALID,73.9319,VALID,486.494,VALID,23.1917,VALID,67,VALID,0,
2015-03-05, 09:07:04,VALID,919.96,VALID,0,VALID,74.1835,VALID,504.006,VALID,23.1314,VALID,67,VALID,0,
2015-03-05, 09:08:04,VALID,919.957,VALID,0,VALID,73.6879,VALID,530.33,VALID,23.0728,VALID,67,VALID,0,
2015-03-05, 09:09:04,VALID,919.965,VALID,0,VALID,74.4808,VALID,537.421,VALID,23.0924,VALID,67,VALID,0,
2015-03-05, 09:10:04,VALID,919.981,VALID,0,VALID,74.5113,VALID,555.041,VALID,23.1509,VALID,67,VALID,0,
2015-03-05, 09:11:04,VALID,919.967,VALID,0,VALID,73.6574,VALID,556.33,VALID,23.1704,VALID,67,VALID,0,
2015-03-05, 09:12:04,VALID,919.991,VALID,0,VALID,74.2597,VALID,530.867,VALID,23.1899,VALID,67,VALID,0,
2015-03-05, 09:13:04,VALID,919.991,VALID,0,VALID,73.9624,VALID,545.264,VALID,23.1722,VALID,67,VALID,0,
2015-03-05, 09:14:04,VALID,919.965,VALID,0,VALID,74.6027,VALID,530.007,VALID,23.2485,VALID,67,VALID,0,
2015-03-05, 09:15:04,VALID,919.95,VALID,0,VALID,73.1391,VALID,517.329,VALID,23.5022,VALID,67,VALID,0,
2015-03-05, 09:16:04,VALID,919.953,VALID,0,VALID,72.8951,VALID,511.742,VALID,23.7382,VALID,67,VALID,0,
2015-03-05, 09:17:04,VALID,920.003,VALID,0,VALID,73.4287,VALID,527.429,VALID,23.756,VALID,67,VALID,0.702734,
2015-03-05, 09:18:04,VALID,920.005,VALID,0,VALID,72.4758,VALID,533.123,VALID,23.8536,VALID,67,VALID,0.267969,
2015-03-05, 09:19:04,VALID,920.013,VALID,0,VALID,71.9346,VALID,523.023,VALID,24.1287,VALID,67,VALID,0,
2015-03-05, 09:20:04,VALID,920.045,VALID,0,VALID,70.9054,VALID,532.693,VALID,24.4392,VALID,67,VALID,1.04102,
2015-03-05, 09:21:04,VALID,920.034,VALID,0,VALID,68.8776,VALID,509.379,VALID,24.693,VALID,66,VALID,1.11445,
2015-03-05, 09:22:04,VALID,920.034,VALID,0,VALID,68.7556,VALID,508.412,VALID,24.8492,VALID,67,VALID,0.0195313,
2015-03-05, 09:23:04,VALID,920.053,VALID,0,VALID,68.5116,VALID,507.122,VALID,24.9274,VALID,14,VALID,0,
2015-03-05, 09:24:04,VALID,920.05,VALID,0,VALID,68.3668,VALID,516.04,VALID,24.9078,VALID,14,VALID,0,
2015-03-05, 09:25:04,VALID,920.048,VALID,0,VALID,69.3426,VALID,517.974,VALID,24.9664,VALID,14,VALID,0,
2015-03-05, 09:26:04,VALID,920.046,VALID,0,VALID,69.0072,VALID,533.983,VALID,25.0426,VALID,22,VALID,1.58555,
2015-03-05, 09:27:04,VALID,920.053,VALID,0,VALID,67.3757,VALID,534.197,VALID,25.1031,VALID,5,VALID,1.61133,
2015-03-05, 09:28:04,VALID,920.064,VALID,0,VALID,65.9959,VALID,546.446,VALID,24.8492,VALID,12,VALID,0.0804688,
2015-03-05, 09:29:04,VALID,920.064,VALID,0,VALID,67.8636,VALID,541.933,VALID,24.6131,VALID,355,VALID,0,
2015-03-05, 09:30:04,VALID,920.079,VALID,0,VALID,68.8013,VALID,543.867,VALID,24.6716,VALID,323,VALID,0,
2015-03-05, 09:31:04,VALID,920.093,VALID,0,VALID,68.9462,VALID,539.247,VALID,24.7516,VALID,26,VALID,0.308594,
2015-03-05, 09:32:04,VALID,920.091,VALID,0,VALID,66.2246,VALID,538.065,VALID,24.7107,VALID,354,VALID,0.0195313,
2015-03-05, 09:33:04,VALID,920.083,VALID,0,VALID,68.3134,VALID,552.57,VALID,24.8102,VALID,22,VALID,0.614844,
2015-03-05, 09:34:04,VALID,920.053,VALID,0,VALID,67.5816,VALID,552.677,VALID,24.8492,VALID,29,VALID,0.670703,
2015-03-05, 09:35:04,VALID,920.051,VALID,0,VALID,68.5879,VALID,551.066,VALID,24.9859,VALID,17,VALID,0.00585938,
2015-03-05, 09:36:04,VALID,920.072,VALID,0,VALID,67.6959,VALID,561.165,VALID,25.1422,VALID,347,VALID,0,
2015-03-05, 09:37:04,VALID,920.059,VALID,0,VALID,67.2004,VALID,577.604,VALID,25.2398,VALID,347,VALID,0.110156,
2015-03-05, 09:38:04,VALID,920.057,VALID,0,VALID,65.7672,VALID,582.653,VALID,25.1617,VALID,320,VALID,0.269922,
2015-03-05, 09:39:04,VALID,920.084,VALID,0,VALID,66.8116,VALID,587.918,VALID,25.0445,VALID,12,VALID,0,
2015-03-05, 09:40:04,VALID,920.035,VALID,0,VALID,65.6224,VALID,591.678,VALID,25.1422,VALID,20,VALID,0,
2015-03-05, 09:41:04,VALID,920.03,VALID,0,VALID,65.7138,VALID,594.472,VALID,25.2769,VALID,20,VALID,0,
2015-03-05, 09:42:04,VALID,920.034,VALID,0,VALID,66.278,VALID,594.15,VALID,25.5113,VALID,11,VALID,0,
2015-03-05, 09:43:04,VALID,920.027,VALID,0,VALID,66.3008,VALID,575.133,VALID,25.7085,VALID,6,VALID,1.31562,
2015-03-05, 09:44:04,VALID,920.016,VALID,0,VALID,65.3251,VALID,577.174,VALID,25.7476,VALID,24,VALID,0.785156,
2015-03-05, 09:45:04,VALID,920.023,VALID,0,VALID,65.7901,VALID,581.686,VALID,25.7261,VALID,10,VALID,0.0496094,
2015-03-05, 09:46:04,VALID,920.019,VALID,0,VALID,65.973,VALID,577.174,VALID,25.7261,VALID,38,VALID,0,
2015-03-05, 09:47:04,VALID,920.057,VALID,0,VALID,65.4242,VALID,536.561,VALID,25.8042,VALID,49,VALID,0,
2015-03-05, 09:48:04,VALID,920.031,VALID,0,VALID,65.1878,VALID,558.801,VALID,25.8628,VALID,312,VALID,0,
2015-03-05, 09:49:04,VALID,920.016,VALID,0,VALID,64.6542,VALID,571.372,VALID,25.9019,VALID,31,VALID,0,
2015-03-05, 09:50:04,VALID,920.031,VALID,0,VALID,64.8295,VALID,568.256,VALID,25.9995,VALID,316,VALID,0,
2015-03-05, 09:51:04,VALID,920.002,VALID,0,VALID,62.8017,VALID,574.058,VALID,26.1948,VALID,1,VALID,0,
2015-03-05, 09:52:04,VALID,920.042,VALID,0,VALID,62.6035,VALID,586.629,VALID,26.3902,VALID,1,VALID,0,
2015-03-05, 09:53:04,VALID,920.044,VALID,0,VALID,61.399,VALID,589.207,VALID,26.6246,VALID,346,VALID,0,
2015-03-05, 09:54:04,VALID,920.033,VALID,0,VALID,59.981,VALID,595.439,VALID,26.5464,VALID,298,VALID,0,
2015-03-05, 09:55:04,VALID,920.036,VALID,0,VALID,60.0573,VALID,607.15,VALID,26.5855,VALID,303,VALID,0,
2015-03-05, 09:56:04,VALID,920.02,VALID,0,VALID,59.1958,VALID,606.505,VALID,26.4683,VALID,276,VALID,0,
2015-03-05, 09:57:04,VALID,919.994,VALID,0,VALID,60.3775,VALID,618.646,VALID,25.9975,VALID,245,VALID,0,
2015-03-05, 09:58:04,VALID,919.993,VALID,0,VALID,62.5501,VALID,610.695,VALID,25.8628,VALID,245,VALID,0,
2015-03-05, 09:59:04,VALID,920.003,VALID,0,VALID,61.6277,VALID,621.225,VALID,25.6851,VALID,242,VALID,0.215234,
2015-03-05, 10:00:04,VALID,920.007,VALID,0,VALID,61.155,VALID,618.539,VALID,25.4703,VALID,307,VALID,0.00585938,
2015-03-05, 10:01:04,VALID,920.041,VALID,0,VALID,62.169,VALID,617.464,VALID,25.4703,VALID,339,VALID,0.00429688,
2015-03-05, 10:02:04,VALID,920.029,VALID,0,VALID,58.3039,VALID,613.811,VALID,25.4312,VALID,297,VALID,0.163672,
2015-03-05, 10:03:04,VALID,920.04,VALID,0,VALID,60.5528,VALID,604.357,VALID,25.3726,VALID,313,VALID,0,
2015-03-05, 10:04:04,VALID,919.993,VALID,0,VALID,60.9263,VALID,616.282,VALID,25.4507,VALID,359,VALID,1.27617,
2015-03-05, 10:05:04,VALID,920.003,VALID,0,VALID,62.9618,VALID,614.456,VALID,25.3355,VALID,3,VALID,0.132813,
2015-03-05, 10:06:04,VALID,919.984,VALID,0,VALID,64.517,VALID,624.448,VALID,25.3336,VALID,17,VALID,0,
2015-03-05, 10:07:04,VALID,919.993,VALID,0,VALID,61.7802,VALID,634.44,VALID,25.5289,VALID,337,VALID,0.00351562,
2015-03-05, 10:08:04,VALID,920.014,VALID,0,VALID,59.7066,VALID,619.721,VALID,25.5503,VALID,6,VALID,1.54219,
2015-03-05, 10:09:04,VALID,920.005,VALID,0,VALID,62.1918,VALID,620.58,VALID,25.4312,VALID,290,VALID,0.941797,
2015-03-05, 10:10:04,VALID,920.009,VALID,0,VALID,63.5259,VALID,621.762,VALID,25.3336,VALID,25,VALID,1.28281,
2015-03-05, 10:11:04,VALID,919.995,VALID,0,VALID,60.1792,VALID,631.324,VALID,25.4117,VALID,8,VALID,1.28906,
2015-03-05, 10:12:04,VALID,920.016,VALID,0,VALID,59.7981,VALID,629.39,VALID,25.4117,VALID,16,VALID,0.510156,
2015-03-05, 10:13:04,VALID,919.971,VALID,0,VALID,60.4537,VALID,636.481,VALID,25.4703,VALID,15,VALID,1.51289,
2015-03-05, 10:14:04,VALID,919.986,VALID,0,VALID,59.1958,VALID,638.2,VALID,25.607,VALID,14,VALID,0.977344,
2015-03-05, 10:15:04,VALID,919.943,VALID,0,VALID,58.0142,VALID,655.606,VALID,25.7437,VALID,35,VALID,1.04609,
2015-03-05, 10:16:04,VALID,919.938,VALID,0,VALID,58.2581,VALID,658.292,VALID,25.7827,VALID,291,VALID,0,
2015-03-05, 10:17:04,VALID,919.928,VALID,0,VALID,59.394,VALID,662.59,VALID,25.8022,VALID,8,VALID,0.0636719,
2015-03-05, 10:18:04,VALID,919.931,VALID,0,VALID,59.577,VALID,667.317,VALID,25.9975,VALID,357,VALID,0.0105469,
2015-03-05, 10:19:04,VALID,919.905,VALID,0,VALID,57.2747,VALID,675.483,VALID,26.1538,VALID,47,VALID,0.786328,
2015-03-05, 10:20:04,VALID,919.867,VALID,0,VALID,57.229,VALID,678.813,VALID,26.2124,VALID,53,VALID,1.35156,
2015-03-05, 10:21:04,VALID,919.901,VALID,0,VALID,58.0371,VALID,689.128,VALID,26.1928,VALID,328,VALID,0.283984,
2015-03-05, 10:22:04,VALID,919.912,VALID,0,VALID,57.9837,VALID,694.07,VALID,26.2319,VALID,16,VALID,0,
2015-03-05, 10:23:04,VALID,919.898,VALID,0,VALID,58.99,VALID,702.773,VALID,26.1948,VALID,323,VALID,0,
2015-03-05, 10:24:04,VALID,919.896,VALID,0,VALID,58.4106,VALID,693.64,VALID,26.1538,VALID,342,VALID,0.114063,
2015-03-05, 10:25:04,VALID,919.885,VALID,0,VALID,58.6546,VALID,697.83,VALID,26.1753,VALID,303,VALID,0,
2015-03-05, 10:26:04,VALID,919.889,VALID,0,VALID,56.9698,VALID,695.037,VALID,26.1558,VALID,301,VALID,0.605078,
2015-03-05, 10:27:04,VALID,919.874,VALID,0,VALID,58.4716,VALID,698.69,VALID,25.9389,VALID,343,VALID,0,
2015-03-05, 10:28:04,VALID,919.85,VALID,0,VALID,59.2949,VALID,699.657,VALID,26.1753,VALID,340,VALID,0.192969,
2015-03-05, 10:29:04,VALID,919.839,VALID,0,VALID,57.168,VALID,693.855,VALID,26.4097,VALID,344,VALID,0,
2015-03-05, 10:30:04,VALID,919.852,VALID,0,VALID,55.9482,VALID,689.987,VALID,26.5054,VALID,343,VALID,0.209766,
2015-03-05, 10:31:04,VALID,919.829,VALID,0,VALID,58.0599,VALID,701.268,VALID,26.5269,VALID,350,VALID,0,
2015-03-05, 10:32:04,VALID,919.805,VALID,0,VALID,58.3039,VALID,695.681,VALID,26.564,VALID,6,VALID,0,
2015-03-05, 10:33:04,VALID,919.808,VALID,0,VALID,56.9317,VALID,708.467,VALID,26.7613,VALID,8,VALID,1.11563,
2015-03-05, 10:34:04,VALID,919.802,VALID,0,VALID,56.581,VALID,719.319,VALID,26.6812,VALID,6,VALID,0,
2015-03-05, 10:35:04,VALID,919.796,VALID,0,VALID,56.7487,VALID,724.261,VALID,26.5269,VALID,269,VALID,0.0121094,
2015-03-05, 10:36:04,VALID,919.735,VALID,0,VALID,58.7842,VALID,736.187,VALID,26.4663,VALID,14,VALID,1.86602,
2015-03-05, 10:37:04,VALID,919.81,VALID,0,VALID,57.5568,VALID,740.27,VALID,26.5464,VALID,355,VALID,1.59805,
2015-03-05, 10:38:04,VALID,919.805,VALID,0,VALID,59.3712,VALID,736.402,VALID,26.3491,VALID,350,VALID,0.0417969,
2015-03-05, 10:39:04,VALID,919.78,VALID,0,VALID,60.4232,VALID,735.542,VALID,26.4858,VALID,7,VALID,0.297266,
2015-03-05, 10:40:04,VALID,919.784,VALID,0,VALID,59.6913,VALID,733.071,VALID,26.6812,VALID,348,VALID,0.138281,
2015-03-05, 10:41:04,VALID,919.746,VALID,0,VALID,57.8236,VALID,726.625,VALID,26.7593,VALID,35,VALID,0.286719,
2015-03-05, 10:42:04,VALID,919.782,VALID,0,VALID,54.233,VALID,736.724,VALID,26.7788,VALID,326,VALID,0.0148437,
2015-03-05, 10:43:04,VALID,919.755,VALID,0,VALID,56.0931,VALID,737.476,VALID,26.6421,VALID,353,VALID,0.110937,
2015-03-05, 10:44:04,VALID,919.73,VALID,0,VALID,58.6088,VALID,744.352,VALID,26.6226,VALID,7,VALID,0.659766,
2015-03-05, 10:45:04,VALID,919.771,VALID,0,VALID,56.52,VALID,737.261,VALID,26.7398,VALID,20,VALID,1.07187,
2015-03-05, 10:46:04,VALID,919.748,VALID,0,VALID,57.1527,VALID,716.203,VALID,26.9351,VALID,348,VALID,0.163281,
2015-03-05, 10:47:04,VALID,919.726,VALID,0,VALID,56.3142,VALID,703.525,VALID,26.9937,VALID,301,VALID,0,
2015-03-05, 10:48:04,VALID,919.715,VALID,0,VALID,56.4895,VALID,713.839,VALID,26.9567,VALID,20,VALID,0,
2015-03-05, 10:49:04,VALID,919.7,VALID,0,VALID,55.5366,VALID,746.716,VALID,26.9937,VALID,1,VALID,0.980078,
2015-03-05, 10:50:04,VALID,919.689,VALID,0,VALID,56.9164,VALID,753.162,VALID,27.0739,VALID,1,VALID,0.360547,
2015-03-05, 10:51:04,VALID,919.68,VALID,0,VALID,56.1617,VALID,760.361,VALID,27.1305,VALID,42,VALID,0.829297,
2015-03-05, 10:52:04,VALID,919.673,VALID,0,VALID,55.9711,VALID,759.716,VALID,27.0523,VALID,338,VALID,0.702734,
2015-03-05, 10:53:04,VALID,919.685,VALID,0,VALID,56.2227,VALID,755.204,VALID,27.2281,VALID,7,VALID,1.37617,
2015-03-05, 10:54:04,VALID,919.687,VALID,0,VALID,55.2012,VALID,758.749,VALID,27.5408,VALID,32,VALID,0.0121094,
2015-03-05, 10:55:04,VALID,919.618,VALID,0,VALID,52.4567,VALID,758.642,VALID,27.8143,VALID,292,VALID,0.0304688,
2015-03-05, 10:56:04,VALID,919.632,VALID,0,VALID,50.9702,VALID,755.741,VALID,27.7557,VALID,360,VALID,1.34727,
2015-03-05, 10:57:04,VALID,919.59,VALID,0,VALID,52.5711,VALID,765.841,VALID,27.3844,VALID,352,VALID,1.92305,
2015-03-05, 10:58:04,VALID,919.587,VALID,0,VALID,56.2456,VALID,761.973,VALID,27.1109,VALID,313,VALID,0,
2015-03-05, 10:59:04,VALID,919.604,VALID,0,VALID,55.1707,VALID,777.444,VALID,26.9156,VALID,284,VALID,1.14688,
2015-03-05, 11:00:04,VALID,919.583,VALID,0,VALID,54.0119,VALID,785.717,VALID,26.7007,VALID,269,VALID,0,
2015-03-05, 11:01:04,VALID,919.572,VALID,0,VALID,54.5532,VALID,782.709,VALID,26.7182,VALID,282,VALID,0,
2015-03-05, 11:02:04,VALID,919.572,VALID,0,VALID,53.4706,VALID,784.213,VALID,26.8374,VALID,289,VALID,0,
2015-03-05, 11:03:04,VALID,919.556,VALID,0,VALID,55.75,VALID,786.039,VALID,26.9937,VALID,326,VALID,0,
2015-03-05, 11:04:04,VALID,919.5,VALID,0,VALID,52.998,VALID,782.924,VALID,27.0719,VALID,17,VALID,1.69414,
2015-03-05, 11:05:04,VALID,919.524,VALID,0,VALID,55.9711,VALID,788.726,VALID,27.0719,VALID,344,VALID,0,
2015-03-05, 11:06:04,VALID,919.519,VALID,0,VALID,55.468,VALID,789.8,VALID,27.187,VALID,324,VALID,0.0121094,